Location: Espelette
(43.3402°N, 1.4474°W)
Time: 00:39:40
(UTC+00:00)

Cosmos 836 Rocket - Pass Details

Date: 19 May 2025
Orbit: 754 x 773 km, 74.1° (Epoch: 18 June)

Event Time Altitude Azimuth Distance (km) Brightness Sun altitude
Exits shadow 21:27:43 19° 187° (S) 1,720 5.9 -17.4°
Maximum altitude 21:31:21 69° 107° (ESE) 808 4.4 -17.8°
Drops below altitude 10° 21:36:31 10° 25° (NNE) 2,289 7.3 -18.4°
Sets 21:38:53 0° 23° (NNE) 3,217 8.2 -18.6°
